FW2152 Weather Reports


time (UTC)temp
F
wind
direction
speed
knots
gust
knots
rain 1hr
in
rain 24hr
in
rain mn
in
humidity
%
barometer
mb
20260505191533 69 180 3.5 9.6 0.00 0.00 0.00 51 1014.9
20260505190031 69 180 4.3 12.2 0.00 0.00 0.00 52 1014.9
20260505184530 69 180 4.3 11.3 0.00 0.00 0.00 53 1015.0
20260505183031 67 180 4.3 11.3 0.00 0.00 0.00 56 1015.1
20260505181532 67 180 6.1 12.2 0.00 0.00 0.00 56 1015.1
20260505180146 67 180 6.1 11.3 0.00 0.00 0.00 57 1015.0
20260505174530 66 180 5.2 13.0 0.00 0.00 0.00 59 1015.0
20260505173031 65 180 6.1 11.3 0.00 0.00 0.00 60 1015.0
20260505171528 64 180 7.0 12.2 0.00 0.00 0.00 61 1014.9
20260505170034 64 180 7.0 12.2 0.00 0.00 0.00 62 1014.9
20260505164530 63 180 6.1 12.2 0.00 0.00 0.00 63 1014.9
20260505163030 62 180 7.0 13.9 0.00 0.00 0.00 64 1014.9
20260505161530 62 180 7.0 13.0 0.00 0.00 0.00 64 1014.9
20260505160149 61 180 6.1 13.0 0.00 0.00 0.00 66 1014.9
20260505153030 60 180 6.1 11.3 0.00 0.00 0.00 67 1014.6
20260505124530 59 180 6.1 12.2 0.00 0.00 0.00 71 1012.8
20260505123031 59 180 5.2 11.3 0.00 0.00 0.00 70 1012.8
20260505121532 59 180 6.1 11.3 0.00 0.00 0.00 70 1012.7
20260505120030 59 180 5.2 13.0 0.00 0.00 0.00 70 1012.6
20260505114528 60 180 6.1 13.0 0.00 0.00 0.00 70 1012.5
20260505113032 60 180 6.1 13.9 0.00 0.00 0.00 69 1012.3
20260505111531 61 180 7.0 17.4 0.00 0.00 0.00 69 1012.2
20260505101532 62 180 7.0 19.1 0.00 0.00 0.00 68 1011.8
20260505093027 62 180 6.1 15.6 0.00 0.00 0.00 67 1011.7
20260505091534 63 180 5.2 13.9 0.00 0.00 0.00 66 1011.7
20260505090030 63 180 5.2 12.2 0.00 0.00 0.00 65 1011.6
20260505084533 64 180 5.2 10.4 0.00 0.00 0.00 63 1011.6
20260505083029 65 180 6.1 14.8 0.00 0.00 0.00 62 1011.6
20260505081528 65 180 4.3 10.4 0.00 0.00 0.00 61 1011.5
20260505074606 66 180 6.1 12.2 0.00 0.00 0.00 60 1011.4
20260505073036 66 180 6.1 11.3 0.00 0.00 0.00 60 1011.4
20260505071645 66 180 5.2 13.0 0.00 0.00 0.00 60 1011.3
20260505070108 66 180 5.2 12.2 0.00 0.00 0.00 59 1011.2
20260505064527 67 180 3.5 9.6 0.00 0.00 0.00 58 1011.1
20260505061533 67 180 6.1 15.6 0.00 0.00 0.00 56 1010.8
20260505054530 68 180 5.2 13.9 0.00 0.00 0.00 54 1010.7
20260505053106 68 180 3.5 9.6 0.00 0.00 0.00 52 1010.7
20260505034605 70 180 2.6 11.3 0.00 0.00 0.00 47 1009.7
20260505031528 72 180 1.7 10.4 0.00 0.00 0.00 46 1009.4
20260505030033 72 180 3.5 12.2 0.00 0.00 0.00 46 1009.2
20260505024532 73 180 2.6 9.6 0.00 0.00 0.00 45 1009.1
20260505023031 74 180 3.5 11.3 0.00 0.00 0.00 45 1009.1
20260505021531 75 180 1.7 7.8 0.00 0.00 0.00 45 1009.1
20260505020029 75 180 3.5 12.2 0.00 0.00 0.00 44 1009.0
20260505014607 76 180 5.2 13.0 0.00 0.00 0.00 42 1009.0
20260505013030 76 180 7.0 13.9 0.00 0.00 0.00 41 1008.9
20260505011532 77 180 7.0 15.6 0.00 0.00 0.00 41 1008.9
20260505010107 77 180 6.1 14.8 0.00 0.00 0.00 41 1008.9
20260505004530 78 180 5.2 14.8 0.00 0.00 0.00 39 1008.9
20260505003031 78 180 7.0 13.9 0.00 0.00 0.00 38 1008.9
20260505000148 79 180 6.1 14.8 0.00 0.00 0.00 38 1009.1
20260504234607 79 180 7.0 16.5 0.00 0.00 0.00 38 1009.2
20260504233051 0 0 0.0 0.0 0.00 0.00 0.00 100